Tracking 29892 objects as of 21-Nov-2024
HD Live streaming from Space Station
objects crossing your sky now

STARLINK-30459

Track STARLINK-30459 now!
10-day predictions
STARLINK-30459 is classified as:


NORAD ID: 57927
Int'l Code: 2023-147Q
Perigee: 472.6 km
Apogee: 480.0 km
Inclination: 43.0 °
Period: 94.0 minutes
Semi major axis: 6847 km
RCS: Unknown
Launch date: September 24, 2023
Source: United States (US)
Launch site: AIR FORCE EASTERN TEST RANGE (AFETR)
Your satellite tracking list
Your tracking list is empty




NASA's NSSDC Master Catalog

Two Line Element Set (TLE):
1 57927U 23147Q   24326.09129115  .00024368  00000-0  77278-3 0  9999
2 57927  43.0012 331.2415 0005432 123.9781 236.1589 15.32227656 65831
Source of the keplerian elements: AFSPC